Change the Weather History Date:

Friday, October 19, 2012

  Actual Average (LHBP) Record (LHBP)
Temperature  
Mean Temperature 57 °F -  
Max Temperature 73 °F 57 °F 68 °F (2012)
Min Temperature 41 °F 39 °F 30 °F (1997)
Degree Days  
Heating Degree Days 8    
Growing Degree Days 7 (Base 50)    
Moisture  
Dew Point 45 °F    
Average Humidity 67    
Maximum Humidity 93    
Minimum Humidity 38    
Precipitation  
Precipitation 0.00 in - - ()
Sea Level Pressure  
Sea Level Pressure 30.16 in    
Wind  
Wind Speed 4 mph ()    
Max Wind Speed 11 mph    
Max Gust Speed -    
Visibility 2.7 miles    
Events      
Averages and records for this station are not official NWS values.
T = Trace of Precipitation, MM = Missing Value Source: Averaged Metar Reports

Daily Weather History Graph

Daily Weather History Graph

Search for Another Location

Airport or City:

Trip Planner

Search our weather history database for the weather conditions in past years. The results will help you decide how hot, cold, wet, or windy it might be!

Date:

Astronomy

Oct. 19, 2012 Rise Set
Actual Time 7:03 AM CEST 5:43 PM CEST
Civil Twilight 6:32 AM CEST 6:14 PM CEST
Nautical Twilight 5:56 AM CEST 6:50 PM CEST
Astronomical Twilight 5:21 AM CEST 7:25 PM CEST
Moon 11:42 AM CEST (10/19) 8:48 PM CEST (10/19)
Length of Visible Light 11h 42m
Length of Day
10h 40m
Waxing Crescent, 21% of the Moon is Illuminated
Oct 19
Waxing Crescent
Oct 22
First Quarter
Oct 29
Full
Nov 7
Last Quarter
Nov 13
New

Hourly Weather History & Observations

Time (CEST) Temp. Windchill Dew Point Humidity Pressure Visibility Wind Dir Wind Speed Gust Speed Precip Events Conditions
12:15 AM 46.4 °F 44.4 °F 37.4 °F 71% 30.18 in - ENE 4.5 mph - N/A   Clear
12:45 AM 46.4 °F 44.4 °F 37.4 °F 71% 30.18 in - East 4.5 mph - N/A   Clear
1:15 AM 44.6 °F 42.3 °F 37.4 °F 76% 30.18 in - East 4.5 mph - N/A   Clear
2:15 AM 44.6 °F - 37.4 °F 76% 30.18 in - East 2.2 mph - N/A   Clear
2:45 AM 44.6 °F 42.3 °F 37.4 °F 76% 30.18 in - East 4.5 mph - N/A   Clear
3:45 AM - - - N/A% - 3.1 mi East 4.5 mph - N/A   Clear
4:15 AM 42.8 °F 40.2 °F 37.4 °F 81% 30.18 in - ESE 4.5 mph - N/A   Clear
4:45 AM 42.8 °F 40.2 °F 39.2 °F 87% 30.18 in - ESE 4.5 mph - N/A   Clear
5:15 AM 42.8 °F 40.2 °F 39.2 °F 87% 30.18 in - ESE 4.5 mph - N/A   Clear
5:45 AM 41.0 °F 38.1 °F 37.4 °F 87% 30.18 in - East 4.5 mph - N/A   Clear
6:15 AM 41.0 °F 38.1 °F 37.4 °F 87% 30.18 in - East 4.5 mph - N/A   Clear
6:45 AM - - - N/A% - - ESE 6.7 mph - N/A   Clear
7:15 AM 41.0 °F 38.1 °F 39.2 °F 93% 30.18 in - East 4.5 mph - N/A   Clear
7:45 AM 42.8 °F 40.2 °F 39.2 °F 87% 30.18 in - East 4.5 mph - N/A   Clear
8:15 AM 44.6 °F - 41.0 °F 87% 30.18 in - East 2.2 mph - N/A   Clear
8:45 AM 50.0 °F - 42.8 °F 76% 30.21 in - East 2.2 mph - N/A   Clear
9:15 AM 53.6 °F - 44.6 °F 72% 30.21 in - ESE 4.5 mph - N/A   Clear
9:45 AM 55.4 °F - 46.4 °F 72% 30.21 in - ESE 4.5 mph - N/A   Clear
10:15 AM 59.0 °F - 46.4 °F 63% 30.18 in - SSE 6.7 mph - N/A   Clear
10:45 AM 60.8 °F - 46.4 °F 59% 30.18 in - SSE 6.7 mph - N/A   Clear
11:15 AM 62.6 °F - 46.4 °F 55% 30.18 in - South 11.2 mph - N/A   Clear
11:45 AM 64.4 °F - 46.4 °F 52% 30.18 in - South 8.9 mph - N/A   Clear
12:15 PM 66.2 °F - 48.2 °F 52% 30.18 in - South 4.5 mph - N/A   Clear
12:45 PM 68.0 °F - 48.2 °F 49% 30.18 in - South 4.5 mph - N/A   Clear
1:15 PM 68.0 °F - 48.2 °F 49% 30.15 in - South 6.7 mph - N/A   Clear
1:45 PM 69.8 °F - 46.4 °F 43% 30.15 in - South 6.7 mph - N/A   Clear
2:15 PM 71.6 °F - 48.2 °F 43% 30.15 in - South 4.5 mph - N/A   Clear
2:45 PM 71.6 °F - 50.0 °F 46% 30.15 in - South 4.5 mph - N/A   Clear
3:15 PM 73.4 °F - 46.4 °F 38% 30.15 in - South 4.5 mph - N/A   Clear
3:45 PM 73.4 °F - 48.2 °F 41% 30.12 in - SSE 4.5 mph - N/A   Clear
4:15 PM 73.4 °F - 48.2 °F 41% 30.12 in - SE 4.5 mph - N/A   Clear
4:45 PM 71.6 °F - 48.2 °F 43% 30.12 in - SE 4.5 mph - N/A   Clear
5:15 PM 69.8 °F - 50.0 °F 49% 30.12 in - SSE 2.2 mph - N/A   Clear
5:45 PM 66.2 °F - 50.0 °F 56% 30.12 in - SSE 2.2 mph - N/A   Clear
6:15 PM 62.6 °F - 50.0 °F 63% 30.12 in - ESE 4.5 mph - N/A   Clear
6:45 PM - - - N/A% - 1.9 mi SE 4.5 mph - N/A   Clear
7:15 PM 59.0 °F - 48.2 °F 67% 30.12 in - East 2.2 mph - N/A   Clear
7:45 PM 59.0 °F - 48.2 °F 67% 30.12 in - ESE 2.2 mph - N/A   Clear
8:15 PM 55.4 °F - 46.4 °F 72% 30.12 in - ESE 2.2 mph - N/A   Clear
8:45 PM 55.4 °F - 48.2 °F 77% 30.12 in - Calm Calm - N/A   Clear
9:15 PM 53.6 °F - 46.4 °F 77% 30.12 in - Calm Calm - N/A   Clear
9:45 PM - - - N/A% - 3.1 mi East 4.5 mph - N/A   Clear
10:15 PM 51.8 °F - 46.4 °F 82% 30.12 in - Calm Calm - N/A   Clear
10:45 PM 50.0 °F - 46.4 °F 87% 30.12 in - Calm Calm - N/A   Clear
11:15 PM 51.8 °F - 46.4 °F 82% 30.12 in - Calm Calm - N/A   Clear
11:45 PM 48.2 °F - 46.4 °F 93% 30.12 in - Calm Calm - N/A   Clear